Home   Weather   Schwabach   Past weeks
Flag for Germany

Past Weather in Schwabach, Bavaria, Germany — Yesterday and Last 2 Weeks

Now
86 °F

Passing clouds.


Feels Like: 85 °F
Forecast: 71 / 62 °F
Wind: 10 mph from Southwest

Location: Nuernberg

Current Time: Aug 18, 2019 at 4:29:43 pm

Latest Report: Aug 18, 2019 at 3:20 pm


Visibility: N/A

Pressure: 29.83 "Hg

Humidity: 40%

Dew Point: 59 °F

Location of SchwabachLocation

Past Weather in Schwabach — Graph

°F

Schwabach Temperature Yesterday

Maximum temperature yesterday: 73 °F (at 1:50 pm)
Minimum temperature yesterday: 54 °F (at 12:50 am)
Average temperature yesterday: 64 °F

High & Low Weather Summary for the Past Weeks

 TemperatureHumidityPressure
High86 °F (Aug 9, 2:20 pm)100% (Aug 4, 1:20 am)30.12 "Hg (Aug 4, 1:20 am)
Low48 °F (Aug 14, 4:50 am)34% (Aug 4, 3:50 pm)29.80 "Hg (Aug 7, 5:20 am)
Average66 °F73%29.98 "Hg
* Reported Aug 3 3:20 pm — Aug 18 3:20 pm, Schwabach. Weather by CustomWeather, © 2019

Note: Actual official high and low records may vary slightly from our data, if they occured in-between our weather recording intervals... More about our weather records

Advertising

Schwabach Weather History for the Previous 24 Hours

Scroll right to see more
 ConditionsComfort  
Time TempWeatherWind HumidityBarometerVisibility
3:20 pm
Sun, Aug 18
86 °FPassing clouds.10 mph40%29.83 "HgN/A
2:50 pm86 °FPassing clouds.10 mph40%29.83 "HgN/A
1:50 pm84 °FPassing clouds.9 mph45%29.83 "HgN/A
1:20 pm82 °FPassing clouds.8 mph45%29.83 "HgN/A
12:50 pm81 °FPassing clouds.8 mph48%29.83 "HgN/A
12:20 pm81 °FPassing clouds.9 mph51%29.86 "HgN/A
11:50 am79 °FPassing clouds.8 mph58%29.86 "HgN/A
11:20 am79 °FPassing clouds.10 mph54%29.86 "HgN/A
10:50 am77 °FPassing clouds.8 mph57%29.86 "HgN/A
10:20 am75 °FPassing clouds.8 mph61%29.86 "HgN/A
9:50 am73 °FPassing clouds.9 mph65%29.86 "HgN/A
9:20 am72 °FPassing clouds.8 mph65%29.86 "HgN/A
8:50 am68 °FSunny.10 mph73%29.86 "Hg10 mi
7:50 am64 °FSunny.8 mph78%29.86 "Hg10 mi
7:20 am64 °FSunny.8 mph78%29.86 "Hg10 mi
6:50 am63 °FSunny.6 mph83%29.86 "Hg10 mi
6:20 am63 °FSunny.6 mph83%29.86 "Hg10 mi
5:50 am63 °FClear.9 mph88%29.86 "Hg10 mi
5:20 am61 °FClear.6 mph94%29.86 "Hg10 mi
4:50 am63 °FClear.7 mph88%29.86 "Hg10 mi
4:20 am61 °FClear.7 mph94%29.86 "Hg10 mi
3:50 am61 °FClear.8 mph88%29.89 "Hg10 mi
3:20 am61 °FPassing clouds.6 mph88%29.89 "HgN/A
2:50 am63 °FPassing clouds.7 mph88%29.89 "HgN/A
2:20 am63 °FPassing clouds.6 mph88%29.89 "HgN/A
1:50 am63 °FLight rain. Passing clouds.6 mph88%29.92 "HgN/A
1:20 am63 °FPassing clouds.5 mph88%29.92 "HgN/A
12:50 am63 °FPartly cloudy.6 mph88%29.92 "HgN/A
12:20 am63 °FPassing clouds.6 mph88%29.92 "HgN/A
11:50 pm
Sat, Aug 17
64 °FPassing clouds.5 mph83%29.95 "HgN/A
11:20 pm64 °FPassing clouds.7 mph83%29.95 "HgN/A
10:50 pm64 °FPassing clouds.7 mph83%29.92 "HgN/A
10:20 pm64 °FLight rain. Passing clouds.3 mph83%29.95 "HgN/A
9:50 pm66 °FLight rain. Passing clouds.5 mph78%29.95 "HgN/A
9:20 pm66 °FLight rain. Passing clouds.7 mph78%29.95 "HgN/A
8:50 pm64 °FLight rain. Passing clouds.1 mph94%29.95 "HgN/A
8:20 pm66 °FScattered clouds.1 mph83%29.92 "HgN/A
7:50 pm70 °FLight rain. Passing clouds.2 mph64%29.92 "HgN/A
7:20 pm70 °FLight rain. Clear.3 mph60%29.92 "HgN/A
6:50 pm70 °FLight rain. Passing clouds.2 mph60%29.92 "HgN/A
6:20 pm70 °FLight rain. Passing clouds.5 mph64%29.92 "HgN/A
5:50 pm70 °FPassing clouds.3 mph64%29.95 "HgN/A
5:20 pm72 °FLight rain. Passing clouds.5 mph53%29.95 "HgN/A
4:50 pm72 °FSunny.7 mph50%29.92 "Hg10 mi
4:20 pm73 °FPassing clouds.10 mph47%29.92 "HgN/A
Weather by CustomWeather, © 2019

See weather overview